Westminster, MD

6:56 AM EST on February 13, 2016 (GMT -0500)
Carroll County Regional-Poage

Weather History for KDMW - February, 2014

Change the Weather History Date:

Wednesday, February 12, 2014

  Actual Average (KTHV) Record (KTHV)
Temperature  
Mean Temperature 16 °F -  
Max Temperature 26 °F 0 °F 71 °F (1999)
Min Temperature 6 °F - -4 °F (2014)
Degree Days  
Heating Degree Days 49    
Moisture  
Dew Point 7 °F    
Average Humidity 67    
Maximum Humidity 93    
Minimum Humidity 46    
Precipitation  
Precipitation 0.00 in - - ()
Sea Level Pressure  
Sea Level Pressure 30.39 in    
Wind  
Wind Speed 4 mph (ENE)    
Max Wind Speed 9 mph    
Max Gust Speed -    
Visibility 9 miles    
Events Snow    
Averages and records for this station are not official NWS values.
T = Trace of Precipitation, MM = Missing Value Source: NWS Daily Summary

Daily Weather History Graph

Daily Weather History Graph

Search for Another Location

Airport or City:

Trip Planner

Search our weather history database for the weather conditions in past years. The results will help you decide how hot, cold, wet, or windy it might be!

Date:

Astronomy

Feb. 12, 2014 Rise Set
Actual Time 7:03 AM EST 5:41 PM EST
Civil Twilight 6:36 AM EST 6:08 PM EST
Nautical Twilight 6:04 AM EST 6:40 PM EST
Astronomical Twilight 5:33 AM EST 7:11 PM EST
Moon 3:53 PM EST (2/12) 5:19 AM EST (2/12)
Length of Visible Light 11h 32m
Length of Day
10h 37m
Waxing Gibbous, 95% of the Moon is Illuminated
Feb 12
Waxing Gibbous
Feb 14
Full
Feb 22
Last Quarter
Mar 1
New
Mar 8
First Quarter

Hourly Weather History & Observations

Time (EST) Temp. Windchill Dew Point Humidity Pressure Visibility Wind Dir Wind Speed Gust Speed Precip Events Conditions
12:15 AM 14.0 °F 6.5 °F 3.2 °F 62% 30.43 in 10.0 mi NNE 4.6 mph - N/A   Clear
12:35 AM 14.0 °F 5.1 °F 3.2 °F 62% 30.44 in 10.0 mi NNE 5.8 mph - N/A   Clear
12:55 AM 14.0 °F 6.5 °F 3.2 °F 62% 30.45 in 10.0 mi NE 4.6 mph - N/A   Scattered Clouds
1:15 AM 14.0 °F 5.1 °F 3.2 °F 62% 30.46 in 10.0 mi NNE 5.8 mph - N/A   Scattered Clouds
1:35 AM 14.0 °F 2.9 °F 3.2 °F 62% 30.44 in 10.0 mi NE 8.1 mph - N/A   Clear
1:55 AM 12.2 °F 2.9 °F 3.2 °F 67% 30.45 in 10.0 mi NE 5.8 mph - N/A   Scattered Clouds
2:15 AM 12.2 °F 4.3 °F 3.2 °F 67% 30.45 in 10.0 mi ENE 4.6 mph - N/A   Clear
2:35 AM 10.4 °F 2.2 °F 1.4 °F 67% 30.46 in 10.0 mi NE 4.6 mph - N/A   Clear
2:55 AM 12.2 °F 6.1 °F 1.4 °F 62% 30.46 in 10.0 mi NE 3.5 mph - N/A   Scattered Clouds
3:15 AM 10.4 °F 2.2 °F 1.4 °F 67% 30.46 in 10.0 mi NE 4.6 mph - N/A   Scattered Clouds
3:35 AM 10.4 °F - 1.4 °F 67% 30.46 in 10.0 mi Calm Calm - N/A   Clear
3:55 AM 10.4 °F - 1.4 °F 67% 30.47 in 10.0 mi Calm Calm - N/A   Clear
4:15 AM 10.4 °F - -0.4 °F 62% 30.48 in 10.0 mi Calm Calm - N/A   Clear
4:35 AM 10.4 °F - 1.4 °F 67% 30.46 in 10.0 mi Calm Calm - N/A   Clear
4:55 AM 10.4 °F - 1.4 °F 67% 30.46 in 10.0 mi Calm Calm - N/A   Scattered Clouds
5:15 AM 8.6 °F 2.0 °F -0.4 °F 67% 30.45 in 10.0 mi NNE 3.5 mph - N/A   Scattered Clouds
5:35 AM 8.6 °F - 1.4 °F 73% 30.48 in 10.0 mi Calm Calm - N/A   Clear
5:55 AM 8.6 °F - 1.4 °F 73% 30.47 in 10.0 mi Calm Calm - N/A   Scattered Clouds
6:15 AM 6.8 °F - -0.4 °F 72% 30.46 in 10.0 mi Calm Calm - N/A   Clear
6:35 AM 8.6 °F - 1.4 °F 73% 30.47 in 7.0 mi Calm Calm - N/A   Scattered Clouds
6:55 AM 6.8 °F - -0.4 °F 72% 30.47 in 10.0 mi Calm Calm - N/A   Scattered Clouds
7:15 AM 8.6 °F - 1.4 °F 73% 30.49 in 10.0 mi Calm Calm - N/A   Scattered Clouds
7:35 AM 8.6 °F - -0.4 °F 67% 30.48 in 10.0 mi Calm Calm - N/A   Clear
7:55 AM 6.8 °F - -0.4 °F 72% 30.49 in 10.0 mi Calm Calm - N/A   Clear
8:15 AM 6.8 °F - 1.4 °F 79% 30.49 in 10.0 mi Calm Calm - N/A   Clear
8:35 AM 6.8 °F -0.1 °F -0.4 °F 72% 30.48 in 7.0 mi NNE 3.5 mph - N/A   Clear
8:55 AM 8.6 °F - 1.4 °F 73% 30.48 in 10.0 mi Calm Calm - N/A   Clear
9:15 AM 10.4 °F 2.2 °F 1.4 °F 67% 30.48 in 10.0 mi NE 4.6 mph - N/A   Clear
9:35 AM 12.2 °F 6.1 °F 1.4 °F 62% 30.47 in 10.0 mi NE 3.5 mph - N/A   Clear
9:55 AM 15.8 °F 7.2 °F 3.2 °F 58% 30.47 in 10.0 mi East 5.8 mph - N/A   Clear
10:15 AM 15.8 °F 10.2 °F 3.2 °F 58% 30.48 in 10.0 mi ESE 3.5 mph - N/A   Clear
10:35 AM 15.8 °F 7.2 °F 3.2 °F 58% 30.48 in 10.0 mi East 5.8 mph - N/A   Clear
10:55 AM 17.6 °F - 3.2 °F 53% 30.48 in 10.0 mi Calm Calm - N/A   Clear
11:15 AM 15.8 °F 8.6 °F 3.2 °F 58% 30.46 in 10.0 mi NE 4.6 mph - N/A   Clear
11:35 AM 17.6 °F 12.3 °F 3.2 °F 53% 30.47 in 10.0 mi NE 3.5 mph - N/A   Clear
11:55 AM 19.4 °F 12.8 °F 3.2 °F 49% 30.46 in 10.0 mi East 4.6 mph - N/A   Clear
12:15 PM 19.4 °F - 3.2 °F 49% 30.45 in 10.0 mi Calm Calm - N/A   Clear
12:35 PM 19.4 °F - 3.2 °F 49% 30.44 in 10.0 mi Calm Calm - N/A   Clear
12:55 PM 21.2 °F - 5.0 °F 50% 30.42 in 10.0 mi Calm Calm - N/A   Clear
1:15 PM 23.0 °F 17.0 °F 6.8 °F 50% 30.40 in 10.0 mi South 4.6 mph - N/A   Clear
1:35 PM 21.2 °F - 5.0 °F 50% 30.38 in 10.0 mi Calm Calm - N/A   Clear
1:55 PM 21.2 °F 16.4 °F 5.0 °F 50% 30.38 in 10.0 mi ENE 3.5 mph - N/A   Clear
2:15 PM 24.8 °F 20.5 °F 6.8 °F 46% 30.38 in 10.0 mi SE 3.5 mph - N/A   Clear
2:40 PM 24.8 °F 20.5 °F 6.8 °F 46% 30.39 in 10.0 mi ESE 3.5 mph - N/A   Clear
3:00 PM 26.6 °F 17.5 °F 8.6 °F 47% 30.38 in 10.0 mi SE 9.2 mph - N/A   Clear
3:20 PM 26.6 °F 19.1 °F 12.2 °F 55% 30.37 in 10.0 mi SSE 6.9 mph - N/A   Clear
3:40 PM 24.8 °F 16.9 °F 14.0 °F 64% 30.36 in 10.0 mi SE 6.9 mph - N/A   Clear
4:00 PM 24.8 °F 15.3 °F 12.2 °F 59% 30.36 in 10.0 mi SE 9.2 mph - N/A   Clear
4:20 PM 24.8 °F 16.1 °F 12.2 °F 59% 30.34 in 10.0 mi SE 8.1 mph - N/A   Clear
4:40 PM 24.8 °F 16.9 °F 12.2 °F 59% 30.34 in 10.0 mi SSE 6.9 mph - N/A   Clear
5:00 PM 24.8 °F 16.9 °F 12.2 °F 59% 30.33 in 10.0 mi SE 6.9 mph - N/A   Clear
5:20 PM 23.0 °F 17.0 °F 12.2 °F 63% 30.32 in 10.0 mi East 4.6 mph - N/A   Clear
5:40 PM 23.0 °F 18.4 °F 14.0 °F 68% 30.31 in 10.0 mi East 3.5 mph - N/A   Scattered Clouds
6:00 PM 23.0 °F 18.4 °F 14.0 °F 68% 30.30 in 10.0 mi East 3.5 mph - N/A   Mostly Cloudy
6:20 PM 23.0 °F 15.8 °F 14.0 °F 68% 30.30 in 10.0 mi East 5.8 mph - N/A   Mostly Cloudy
6:40 PM 23.0 °F 15.8 °F 15.8 °F 74% 30.29 in 10.0 mi East 5.8 mph - N/A   Scattered Clouds
7:00 PM 23.0 °F 18.4 °F 15.8 °F 74% 30.29 in 10.0 mi East 3.5 mph - N/A   Mostly Cloudy
7:20 PM 23.0 °F 17.0 °F 15.8 °F 74% 30.30 in 10.0 mi East 4.6 mph - N/A   Mostly Cloudy
7:40 PM 23.0 °F 15.8 °F 15.8 °F 74% 30.29 in 10.0 mi East 5.8 mph - N/A   Mostly Cloudy
8:00 PM 21.2 °F 16.4 °F 15.8 °F 80% 30.29 in 3.0 mi East 3.5 mph - N/A Snow Light Snow
8:20 PM 21.2 °F 14.9 °F 17.6 °F 86% 30.28 in 2.0 mi East 4.6 mph - N/A Snow Light Snow
8:40 PM 21.2 °F 13.6 °F 17.6 °F 86% 30.27 in 3.0 mi ENE 5.8 mph - N/A Snow Light Snow
9:00 PM 21.2 °F 12.6 °F 17.6 °F 86% 30.26 in 2.5 mi ENE 6.9 mph - N/A Snow Light Snow
9:20 PM 19.4 °F 11.5 °F 17.6 °F 93% 30.24 in 1.8 mi ENE 5.8 mph - N/A Snow Light Snow
9:40 PM 19.4 °F 11.5 °F 17.6 °F 93% 30.23 in 2.0 mi ENE 5.8 mph - N/A Snow Light Snow
10:00 PM 19.4 °F 12.8 °F 17.6 °F 93% 30.23 in 2.0 mi NE 4.6 mph - N/A Snow Light Snow
10:20 PM 19.4 °F 10.4 °F 15.8 °F 86% 30.22 in 2.0 mi NE 6.9 mph - N/A Snow Light Snow
10:40 PM 19.4 °F 9.5 °F 15.8 °F 86% 30.20 in 1.8 mi NE 8.1 mph - N/A Snow Light Snow
11:00 PM 19.4 °F 11.5 °F 15.8 °F 86% 30.19 in 1.8 mi NE 5.8 mph - N/A Snow Light Snow
11:20 PM 19.4 °F 11.5 °F 15.8 °F 86% 30.17 in 1.8 mi NE 5.8 mph - N/A Snow Light Snow
11:40 PM 19.4 °F 10.4 °F 15.8 °F 86% 30.17 in 1.2 mi NNE 6.9 mph - N/A Snow Light Snow